N4QEP-13 Weather Reports


time (UTC)temp
F
wind
direction
speed
knots
gust
knots
rain 1hr
in
rain 24hr
in
rain mn
in
humidity
%
barometer
mb
20260507080005 75 163 0.0 5.2 0.00 0.00 0.00 77 1012.3
20260507074503 75 117 0.9 3.5 0.00 0.00 0.00 77 1012.5
20260507073136 75 269 0.9 5.2 0.00 0.00 0.00 77 1012.9
20260507071600 75 141 0.0 1.7 0.00 0.00 0.00 77 1013.2
20260507070059 75 18 0.0 2.6 0.00 0.00 0.00 77 1013.0
20260507064612 75 140 0.9 2.6 0.00 0.00 0.00 77 1013.1
20260507063027 75 207 0.0 2.6 0.00 0.00 0.00 77 1012.9
20260507061533 75 143 1.7 5.2 0.00 0.00 0.00 77 1012.6
20260507060056 75 134 0.0 6.1 0.00 0.00 0.00 77 1013.1
20260507054556 75 156 0.0 1.7 0.00 0.00 0.00 77 1014.0
20260507053050 75 239 0.9 3.5 0.00 0.00 0.00 77 1013.9
20260507051548 74 215 0.9 3.5 0.00 0.00 0.00 77 1013.5
20260507050050 74 188 0.9 9.6 0.00 0.00 0.00 77 1013.6
20260507044546 74 297 0.9 5.2 0.00 0.00 0.00 76 1013.5
20260507043044 74 183 0.0 7.8 0.00 0.00 0.00 77 1013.5
20260507041545 74 136 0.0 3.5 0.00 0.00 0.00 77 1013.7
20260507040039 74 235 0.9 4.3 0.00 0.00 0.00 77 1014.0
20260507034544 74 188 0.0 6.1 0.00 0.00 0.00 77 1013.6
20260507033056 74 158 0.0 4.3 0.00 0.00 0.00 76 1013.4
20260507031537 74 206 0.0 5.2 0.00 0.00 0.00 76 1014.2
20260507030034 74 48 0.0 1.7 0.00 0.00 0.00 76 1014.4
20260507024536 74 238 0.0 3.5 0.00 0.00 0.00 76 1014.3
20260507023034 74 218 0.0 1.7 0.00 0.00 0.00 76 1014.0
20260507021533 74 125 0.0 2.6 0.00 0.00 0.00 76 1013.8
20260507020032 74 153 0.0 5.2 0.00 0.00 0.00 76 1013.2
20260507014530 75 200 0.0 3.5 0.00 0.00 0.00 75 1013.1
20260507013029 75 206 0.0 1.7 0.00 0.00 0.00 75 1013.2
20260507011529 75 191 0.0 2.6 0.00 0.00 0.00 75 1013.5
20260507010059 75 13 0.0 4.3 0.00 0.00 0.00 75 1013.4
20260507004558 75 214 0.0 4.3 0.00 0.00 0.00 75 1013.6
20260507003100 75 117 0.0 3.5 0.00 0.00 0.00 75 1014.1
20260507001610 75 23 0.9 3.5 0.00 0.00 0.00 75 1013.7
20260507000054 75 319 0.0 5.2 0.00 0.00 0.00 74 1013.6
20260506234601 75 109 0.0 5.2 0.00 0.00 0.00 74 1013.5
20260506233053 75 325 0.0 4.3 0.00 0.00 0.00 75 1013.3
20260506231553 75 243 0.0 3.5 0.00 0.00 0.00 75 1013.4
20260506230048 76 141 0.0 3.5 0.00 0.00 0.00 74 1013.6
20260506224604 76 174 0.0 0.9 0.00 0.00 0.00 74 1013.8
20260506223049 76 141 0.0 2.6 0.00 0.00 0.00 74 1014.0
20260506221545 77 293 0.0 3.5 0.00 0.00 0.00 72 1014.1
20260506220057 78 166 0.0 3.5 0.00 0.00 0.00 72 1014.2
20260506214544 78 171 0.0 2.6 0.00 0.00 0.00 71 1014.2
20260506213043 79 171 0.0 4.3 0.00 0.00 0.00 70 1014.3
20260506211543 79 129 0.0 4.3 0.00 0.00 0.00 70 1014.4
20260506210038 79 113 0.9 5.2 0.00 0.00 0.00 69 1014.5
20260506204538 78 195 0.0 2.6 0.00 0.00 0.00 71 1014.7
20260506203036 78 176 0.0 4.3 0.00 0.00 0.00 71 1014.9
20260506201533 78 288 0.0 2.6 0.00 0.00 0.00 71 1015.0
20260506200035 79 188 0.0 4.3 0.00 0.00 0.00 70 1015.0
20260506194537 80 229 0.9 5.2 0.00 0.00 0.00 68 1015.2
20260506193032 81 186 0.9 3.5 0.00 0.00 0.00 67 1015.4
20260506191529 81 155 0.9 2.6 0.00 0.00 0.00 67 1015.7
20260506190028 80 20 0.0 6.1 0.00 0.00 0.00 69 1016.1
20260506184530 80 163 0.0 4.3 0.00 0.00 0.00 68 1016.3
20260506183027 82 220 0.0 4.3 0.00 0.00 0.00 66 1016.4
20260506181616 82 281 0.9 5.2 0.00 0.00 0.00 64 1016.4
20260506180054 82 309 0.0 2.6 0.00 0.00 0.00 65 1016.6
20260506174552 83 248 0.0 3.5 0.00 0.00 0.00 64 1016.5
20260506173117 81 110 0.0 3.5 0.00 0.00 0.00 66 1016.7
20260506171553 80 56 0.0 2.6 0.00 0.00 0.00 69 1016.7
20260506170050 79 9 0.0 2.6 0.00 0.00 0.00 69 1017.0
20260506164542 79 26 0.0 1.7 0.00 0.00 0.00 69 1017.0
20260506163042 79 47 0.0 3.5 0.00 0.00 0.00 69 1017.0
20260506161541 79 225 0.9 4.3 0.00 0.00 0.00 68 1016.9
20260506160041 79 66 0.0 3.5 0.00 0.00 0.00 69 1017.0
20260506154534 79 209 0.0 2.6 0.00 0.00 0.00 70 1017.0
20260506153031 78 151 0.0 1.7 0.00 0.00 0.00 71 1016.9
20260506151531 77 221 0.0 2.6 0.00 0.00 0.00 72 1016.7
20260506150030 77 261 0.0 4.3 0.00 0.00 0.00 72 1016.6
20260506144523 77 213 0.0 1.7 0.00 0.00 0.00 72 1016.6
20260506143022 76 132 0.0 6.1 0.00 0.00 0.00 73 1016.5
20260506141521 76 258 0.0 2.6 0.00 0.00 0.00 72 1016.4
20260506140021 77 207 0.0 2.6 0.00 0.00 0.00 72 1016.2
20260506134518 76 224 1.7 4.3 0.00 0.00 0.00 73 1016.1
20260506133012 76 203 0.9 4.3 0.00 0.00 0.00 74 1016.0
20260506131520 75 257 0.0 3.5 0.00 0.00 0.00 75 1015.9
20260506130006 75 190 0.9 5.2 0.00 0.00 0.00 77 1015.6
20260506124533 73 342 0.0 3.5 0.00 0.00 0.00 80 1015.4
20260506123031 72 103 0.0 1.7 0.00 0.00 0.00 81 1015.4
20260506121525 71 56 0.0 0.9 0.00 0.00 0.00 81 1015.0
20260506120023 70 180 0.0 0.0 0.00 0.00 0.00 81 1014.8
20260506114522 70 180 0.0 0.0 0.00 0.00 0.00 81 1014.4
20260506113022 69 180 0.0 2.6 0.00 0.00 0.00 81 1014.3
20260506111514 68 68 0.0 0.9 0.00 0.00 0.00 81 1014.0
20260506110013 68 58 0.0 0.0 0.00 0.00 0.00 81 1013.8
20260506104510 67 58 0.0 0.0 0.00 0.00 0.00 81 1013.5
20260506103009 67 129 0.0 0.0 0.00 0.00 0.00 81 1013.3
20260506101506 66 128 0.0 0.9 0.00 0.00 0.00 81 1013.2
20260506100003 65 129 0.0 0.9 0.00 0.00 0.00 81 1013.0
20260506094502 63 128 0.0 0.0 0.00 0.00 0.00 81 1013.0
20260506093100 63 128 0.0 0.0 0.00 0.00 0.00 81 1013.1
20260506091557 64 128 0.0 0.0 0.00 0.00 0.00 81 1013.1
20260506090056 64 129 0.0 0.0 0.00 0.00 0.00 81 1013.3
20260506084553 63 129 0.0 0.0 0.00 0.00 0.00 81 1013.5
20260506083052 63 128 0.0 0.0 0.00 0.00 0.00 80 1013.5
20260506081554 63 129 0.0 0.0 0.00 0.00 0.00 81 1013.6